EZS9071 LFSB-LIPQ

Flight info

Callsign EZS9071
Flight time 0h 53m
Altitude 29000
Route ZH677 DCT OSNOG DCT RESIA DCT IXOGU DCT TIBRO
Aircraft A320/M-SDE3FGHIRWY/L

Departure

Time 2026-04-21 18:52
Airport EuroAirport Basel–Mulhouse–Freiburg (LFSB)

Arrival

Time 2026-04-21 19:45
Airport Trieste Airport (LIPQ)
Time Latitude Longitude Altitude Speed Heading
2026-04-21 18:21 47.59834 7.52812 887 ft 0 kts 69°
2026-04-21 18:42 47.59831 7.52800 859 ft 3 kts 69°
2026-04-21 18:42 47.59824 7.52772 887 ft 3 kts 69°
2026-04-21 18:42 47.59818 7.52748 887 ft 3 kts 93°
2026-04-21 18:42 47.59823 7.52730 887 ft 3 kts 152°
2026-04-21 18:43 47.59835 7.52722 887 ft 2 kts 154°
2026-04-21 18:43 47.59849 7.52712 887 ft 1 kts 154°
2026-04-21 18:43 47.59851 7.52710 887 ft 0 kts 154°
2026-04-21 18:46 47.59846 7.52714 887 ft 4 kts 154°
2026-04-21 18:46 47.59792 7.52747 887 ft 13 kts 156°
2026-04-21 18:46 47.59705 7.52811 887 ft 15 kts 154°
2026-04-21 18:46 47.59618 7.52823 887 ft 13 kts 199°
2026-04-21 18:47 47.59531 7.52836 887 ft 15 kts 156°
2026-04-21 18:47 47.59425 7.52910 887 ft 19 kts 155°
2026-04-21 18:47 47.59338 7.52969 888 ft 22 kts 155°
2026-04-21 18:47 47.59206 7.53068 888 ft 19 kts 147°
2026-04-21 18:48 47.59149 7.53284 887 ft 17 kts 97°
2026-04-21 18:48 47.59171 7.53457 887 ft 18 kts 77°
2026-04-21 18:48 47.59189 7.53578 887 ft 18 kts 77°
2026-04-21 18:48 47.59219 7.53768 886 ft 19 kts 77°
2026-04-21 18:49 47.59242 7.53919 886 ft 0 kts 82°
2026-04-21 18:49 47.59242 7.53920 886 ft 0 kts 82°
2026-04-21 18:50 47.59242 7.53936 886 ft 5 kts 92°
2026-04-21 18:50 47.59221 7.54008 886 ft 11 kts 119°
2026-04-21 18:50 47.59166 7.54058 886 ft 9 kts 229°
2026-04-21 18:50 47.59158 7.54001 886 ft 0 kts 257°
2026-04-21 18:51 47.59156 7.53988 886 ft 16 kts 257°
2026-04-21 18:52 47.59056 7.53352 890 ft 106 kts 257°
2026-04-21 18:52 47.58831 7.51924 911 ft 172 kts 257°
2026-04-21 18:52 47.58601 7.50129 1580 ft 177 kts 260°
2026-04-21 18:52 47.58401 7.48314 2405 ft 179 kts 262°
2026-04-21 18:53 47.58230 7.46495 2981 ft 180 kts 262°
2026-04-21 18:53 47.58066 7.44629 3406 ft 190 kts 262°
2026-04-21 18:53 47.57883 7.42631 3814 ft 203 kts 262°
2026-04-21 18:53 47.57666 7.40483 4144 ft 218 kts 261°
2026-04-21 18:54 47.57446 7.38208 4579 ft 227 kts 261°
2026-04-21 18:54 47.57144 7.35846 4990 ft 241 kts 258°
2026-04-21 18:54 47.56786 7.33326 5354 ft 263 kts 257°
2026-04-21 18:54 47.56396 7.30570 5887 ft 280 kts 257°
2026-04-21 18:55 47.55989 7.27707 6736 ft 285 kts 257°
2026-04-21 18:55 47.55574 7.24842 7683 ft 284 kts 258°
2026-04-21 18:55 47.55142 7.21987 8610 ft 285 kts 258°
2026-04-21 18:55 47.54692 7.19149 8956 ft 281 kts 258°
2026-04-21 18:56 47.54236 7.16386 9072 ft 278 kts 255°
2026-04-21 18:56 47.53350 7.13831 9467 ft 284 kts 231°
2026-04-21 18:56 47.51832 7.11955 10385 ft 288 kts 210°
2026-04-21 18:56 47.49847 7.11082 10766 ft 313 kts 183°
2026-04-21 18:57 47.47649 7.11768 11006 ft 340 kts 154°
2026-04-21 18:57 47.45810 7.14064 11429 ft 355 kts 124°
2026-04-21 18:57 47.44589 7.17205 12133 ft 359 kts 116°
2026-04-21 18:57 47.43505 7.20558 12865 ft 363 kts 113°
2026-04-21 18:58 47.42478 7.23987 13572 ft 368 kts 112°
2026-04-21 18:58 47.41451 7.27472 14271 ft 371 kts 112°
2026-04-21 18:58 47.40400 7.30964 14927 ft 374 kts 113°
2026-04-21 18:58 47.39310 7.34473 15554 ft 377 kts 114°
2026-04-21 18:59 47.38190 7.37998 16191 ft 381 kts 114°
2026-04-21 18:59 47.37062 7.41505 16790 ft 385 kts 114°
2026-04-21 18:59 47.35900 7.45089 17411 ft 388 kts 114°
2026-04-21 18:59 47.34727 7.48699 18033 ft 392 kts 114°
2026-04-21 19:00 47.33535 7.52366 18509 ft 399 kts 114°
2026-04-21 19:00 47.32323 7.56091 18975 ft 406 kts 114°
2026-04-21 19:00 47.31091 7.59868 19425 ft 412 kts 114°
2026-04-21 19:00 47.29854 7.63650 19849 ft 418 kts 114°
2026-04-21 19:01 47.28581 7.67551 20299 ft 425 kts 114°
2026-04-21 19:01 47.27298 7.71498 20714 ft 431 kts 114°
2026-04-21 19:01 47.25994 7.75514 21147 ft 437 kts 114°
2026-04-21 19:01 47.24671 7.79568 21588 ft 443 kts 114°
2026-04-21 19:02 47.23321 7.83693 22015 ft 449 kts 114°
2026-04-21 19:02 47.21969 7.87804 22438 ft 455 kts 114°
2026-04-21 19:02 47.20579 7.92020 22849 ft 461 kts 114°
2026-04-21 19:02 47.19170 7.96292 23248 ft 466 kts 114°
2026-04-21 19:03 47.17749 8.00615 23630 ft 472 kts 114°
2026-04-21 19:03 47.16310 8.04986 23967 ft 477 kts 114°
2026-04-21 19:03 47.14855 8.09392 24319 ft 481 kts 114°
2026-04-21 19:03 47.13407 8.13771 24656 ft 485 kts 114°
2026-04-21 19:04 47.11922 8.18251 24997 ft 488 kts 115°
2026-04-21 19:04 47.10427 8.22750 25323 ft 492 kts 115°
2026-04-21 19:04 47.08922 8.27265 25765 ft 492 kts 115°
2026-04-21 19:04 47.07408 8.31800 25990 ft 498 kts 115°
2026-04-21 19:05 47.05870 8.36393 26218 ft 504 kts 115°
2026-04-21 19:05 47.04335 8.40963 26505 ft 508 kts 115°
2026-04-21 19:05 47.02768 8.45617 26831 ft 511 kts 115°
2026-04-21 19:05 47.01188 8.50307 27157 ft 514 kts 115°
2026-04-21 19:06 46.99605 8.55013 27506 ft 515 kts 115°
2026-04-21 19:06 46.98020 8.59723 27764 ft 517 kts 115°
2026-04-21 19:06 46.96420 8.64466 28110 ft 521 kts 115°
2026-04-21 19:06 46.94831 8.69169 28405 ft 523 kts 115°
2026-04-21 19:07 46.93206 8.73963 28703 ft 527 kts 115°
2026-04-21 19:07 46.91571 8.78780 28942 ft 530 kts 115°
2026-04-21 19:07 46.89926 8.83618 29084 ft 529 kts 115°
2026-04-21 19:08 46.86673 8.93136 29100 ft 520 kts 116°
2026-04-21 19:08 46.83465 9.02495 29098 ft 517 kts 115°
2026-04-21 19:09 46.80247 9.11864 29101 ft 516 kts 115°
2026-04-21 19:09 46.77035 9.21174 29085 ft 517 kts 116°
2026-04-21 19:10 46.73775 9.30566 29082 ft 519 kts 116°
2026-04-21 19:10 46.70514 9.39953 29096 ft 518 kts 116°
2026-04-21 19:11 46.67256 9.49310 29074 ft 518 kts 116°
2026-04-21 19:11 46.63988 9.58655 29039 ft 517 kts 116°
2026-04-21 19:12 46.60725 9.67932 29030 ft 518 kts 116°
2026-04-21 19:12 46.57441 9.77245 29047 ft 517 kts 116°
2026-04-21 19:13 46.54158 9.86533 28993 ft 515 kts 117°
2026-04-21 19:13 46.50892 9.95743 28998 ft 517 kts 117°
2026-04-21 19:14 46.48096 10.05323 29003 ft 515 kts 103°
2026-04-21 19:14 46.46916 10.15505 29027 ft 510 kts 92°
2026-04-21 19:15 46.45850 10.25689 29014 ft 513 kts 105°
2026-04-21 19:15 46.44460 10.30389 29025 ft 516 kts 121°
2026-04-21 19:15 46.42320 10.34528 28997 ft 510 kts 136°
2026-04-21 19:16 46.37351 10.41915 29006 ft 512 kts 138°
2026-04-21 19:16 46.32359 10.49262 29032 ft 512 kts 138°
2026-04-21 19:17 46.25111 10.60533 28878 ft 515 kts 124°
2026-04-21 19:17 46.23204 10.64913 28626 ft 512 kts 123°
2026-04-21 19:17 46.21336 10.69277 28335 ft 510 kts 122°
2026-04-21 19:18 46.19483 10.73640 28011 ft 507 kts 122°
2026-04-21 19:18 46.17646 10.77970 27724 ft 504 kts 122°
2026-04-21 19:18 46.15845 10.82207 27525 ft 499 kts 122°
2026-04-21 19:18 46.14038 10.86439 27247 ft 492 kts 122°
2026-04-21 19:19 46.12245 10.90616 26986 ft 487 kts 122°
2026-04-21 19:19 46.10469 10.94742 26723 ft 483 kts 123°
2026-04-21 19:19 46.08694 10.98848 26468 ft 480 kts 123°
2026-04-21 19:19 46.06925 11.02927 26080 ft 477 kts 123°
2026-04-21 19:20 46.05195 11.06906 25634 ft 472 kts 123°
2026-04-21 19:20 46.03465 11.10895 25176 ft 467 kts 123°
2026-04-21 19:20 46.01754 11.14844 24715 ft 465 kts 123°
2026-04-21 19:20 46.00042 11.18789 24306 ft 464 kts 123°
2026-04-21 19:21 45.98332 11.22718 23878 ft 461 kts 123°
2026-04-21 19:21 45.96633 11.26616 23392 ft 457 kts 123°
2026-04-21 19:21 45.94976 11.30420 22838 ft 454 kts 123°
2026-04-21 19:21 45.93296 11.34267 22231 ft 452 kts 123°
2026-04-21 19:22 45.91638 11.38065 21624 ft 443 kts 123°
2026-04-21 19:22 45.90017 11.41770 21047 ft 434 kts 123°
2026-04-21 19:22 45.88417 11.45418 20470 ft 428 kts 123°
2026-04-21 19:22 45.86839 11.49006 19923 ft 422 kts 123°
2026-04-21 19:23 45.85299 11.52501 19378 ft 417 kts 123°
2026-04-21 19:23 45.83755 11.55996 18842 ft 413 kts 123°
2026-04-21 19:23 45.82217 11.59480 18311 ft 412 kts 123°
2026-04-21 19:23 45.80685 11.62947 17698 ft 411 kts 123°
2026-04-21 19:24 45.79157 11.66407 17109 ft 410 kts 123°
2026-04-21 19:24 45.77655 11.69803 16523 ft 408 kts 123°
2026-04-21 19:24 45.76136 11.73229 15985 ft 405 kts 123°
2026-04-21 19:24 45.74627 11.76624 15465 ft 402 kts 123°
2026-04-21 19:25 45.73149 11.79941 14948 ft 387 kts 123°
2026-04-21 19:25 45.71729 11.83134 14463 ft 373 kts 122°
2026-04-21 19:25 45.70345 11.86245 13968 ft 367 kts 122°
2026-04-21 19:25 45.68982 11.89308 13458 ft 363 kts 122°
2026-04-21 19:26 45.67635 11.92328 12925 ft 358 kts 122°
2026-04-21 19:26 45.66315 11.95285 12542 ft 356 kts 122°
2026-04-21 19:26 45.64992 11.98239 12195 ft 351 kts 122°
2026-04-21 19:26 45.63682 12.01162 11865 ft 347 kts 122°
2026-04-21 19:27 45.62383 12.04060 11522 ft 344 kts 122°
2026-04-21 19:27 45.61098 12.06926 11090 ft 341 kts 122°
2026-04-21 19:27 45.59823 12.09768 10644 ft 338 kts 122°
2026-04-21 19:27 45.58576 12.12552 10206 ft 335 kts 122°
2026-04-21 19:28 45.57344 12.15290 9965 ft 318 kts 121°
2026-04-21 19:28 45.56190 12.17846 9831 ft 298 kts 121°
2026-04-21 19:28 45.55082 12.20305 9697 ft 293 kts 121°
2026-04-21 19:28 45.53986 12.22740 9561 ft 290 kts 121°
2026-04-21 19:29 45.52895 12.25162 9427 ft 289 kts 121°
2026-04-21 19:29 45.51804 12.27581 9302 ft 290 kts 122°
2026-04-21 19:29 45.50858 12.30054 9165 ft 286 kts 107°
2026-04-21 19:29 45.50564 12.32826 9034 ft 282 kts 85°
2026-04-21 19:30 45.51013 12.35526 8910 ft 280 kts 68°
2026-04-21 19:30 45.51718 12.38116 8770 ft 280 kts 67°
2026-04-21 19:30 45.52413 12.40664 8429 ft 277 kts 68°
2026-04-21 19:30 45.53116 12.43245 7999 ft 276 kts 68°
2026-04-21 19:31 45.53801 12.45769 7589 ft 275 kts 68°
2026-04-21 19:31 45.54487 12.48314 7190 ft 274 kts 68°
2026-04-21 19:31 45.55172 12.50852 6792 ft 273 kts 69°
2026-04-21 19:31 45.55852 12.53383 6381 ft 272 kts 69°
2026-04-21 19:32 45.56530 12.55896 5991 ft 270 kts 69°
2026-04-21 19:32 45.57198 12.58377 5666 ft 264 kts 69°
2026-04-21 19:32 45.57843 12.60778 5307 ft 260 kts 70°
2026-04-21 19:32 45.58486 12.63171 4964 ft 256 kts 70°
2026-04-21 19:33 45.58912 12.64763 4709 ft 253 kts 70°
2026-04-21 19:33 45.59736 12.67838 4519 ft 252 kts 70°
2026-04-21 19:33 45.60358 12.70167 4389 ft 251 kts 70°
2026-04-21 19:33 45.60978 12.72486 4257 ft 251 kts 70°
2026-04-21 19:34 45.61602 12.74810 4132 ft 250 kts 70°
2026-04-21 19:34 45.62223 12.77134 3998 ft 250 kts 70°
2026-04-21 19:34 45.62840 12.79440 3870 ft 247 kts 70°
2026-04-21 19:34 45.63445 12.81718 3743 ft 249 kts 70°
2026-04-21 19:35 45.64058 12.84027 3614 ft 247 kts 70°
2026-04-21 19:35 45.65291 12.88660 3357 ft 249 kts 70°
2026-04-21 19:35 45.65907 12.90980 3226 ft 249 kts 70°
2026-04-21 19:36 45.66663 12.93190 3097 ft 248 kts 58°
2026-04-21 19:36 45.67731 12.95084 2978 ft 248 kts 46°
2026-04-21 19:36 45.69051 12.96643 2971 ft 241 kts 40°
2026-04-21 19:36 45.70340 12.98078 2987 ft 230 kts 40°
2026-04-21 19:37 45.71593 12.99487 2994 ft 229 kts 41°
2026-04-21 19:37 45.72843 13.00900 2992 ft 229 kts 40°
2026-04-21 19:37 45.74094 13.02312 3001 ft 229 kts 41°
2026-04-21 19:37 45.75330 13.03705 2994 ft 229 kts 40°
2026-04-21 19:38 45.76551 13.05078 2994 ft 215 kts 41°
2026-04-21 19:38 45.77683 13.06349 3001 ft 200 kts 40°
2026-04-21 19:38 45.78403 13.07159 3002 ft 197 kts 41°
2026-04-21 19:38 45.79836 13.08780 2999 ft 195 kts 41°
2026-04-21 19:39 45.80891 13.09973 2995 ft 188 kts 41°
2026-04-21 19:39 45.81798 13.11224 3001 ft 181 kts 54°
2026-04-21 19:39 45.82454 13.12742 2992 ft 178 kts 68°
2026-04-21 19:39 45.82781 13.14444 3005 ft 177 kts 84°
2026-04-21 19:40 45.82859 13.16213 3006 ft 177 kts 88°
2026-04-21 19:40 45.82879 13.17978 2998 ft 177 kts 89°
2026-04-21 19:40 45.82883 13.19744 2994 ft 177 kts 89°
2026-04-21 19:40 45.82880 13.21417 3045 ft 163 kts 89°
2026-04-21 19:41 45.82877 13.22999 2986 ft 156 kts 89°
2026-04-21 19:41 45.82873 13.24542 2834 ft 153 kts 89°
2026-04-21 19:41 45.82868 13.26056 2651 ft 151 kts 89°
2026-04-21 19:41 45.82864 13.27545 2457 ft 151 kts 89°
2026-04-21 19:42 45.82859 13.29048 2262 ft 151 kts 89°
2026-04-21 19:42 45.82854 13.30549 2056 ft 149 kts 89°
2026-04-21 19:42 45.82848 13.32010 1862 ft 143 kts 90°
2026-04-21 19:42 45.82843 13.33390 1672 ft 136 kts 89°
2026-04-21 19:43 45.82838 13.34718 1521 ft 133 kts 89°
2026-04-21 19:43 45.82833 13.36032 1322 ft 131 kts 89°
2026-04-21 19:43 45.82828 13.37342 1138 ft 131 kts 89°
2026-04-21 19:43 45.82823 13.38659 962 ft 133 kts 89°
2026-04-21 19:44 45.82821 13.39985 773 ft 133 kts 90°
2026-04-21 19:44 45.82811 13.41314 609 ft 133 kts 91°
2026-04-21 19:44 45.82807 13.42628 398 ft 131 kts 90°
2026-04-21 19:44 45.82802 13.43902 218 ft 129 kts 91°
2026-04-21 19:45 45.82797 13.45179 60 ft 127 kts 91°
2026-04-21 19:45 45.82789 13.46261 45 ft 85 kts 91°
2026-04-21 19:45 45.82787 13.46865 46 ft 36 kts 90°
2026-04-21 19:45 45.82784 13.47177 49 ft 29 kts 91°
2026-04-21 19:46 45.82782 13.47451 47 ft 27 kts 91°
2026-04-21 19:46 45.82728 13.47691 46 ft 25 kts 136°
2026-04-21 19:46 45.82662 13.47767 46 ft 0 kts 135°
2026-04-21 19:47 45.82639 13.47798 46 ft 10 kts 139°
2026-04-21 19:47 45.82578 13.47869 46 ft 12 kts 140°
2026-04-21 19:47 45.82506 13.47956 46 ft 15 kts 140°
2026-04-21 19:48 45.82422 13.48056 46 ft 17 kts 140°
2026-04-21 19:48 45.82328 13.48171 46 ft 19 kts 140°
2026-04-21 19:48 45.82259 13.48301 46 ft 16 kts 92°
2026-04-21 19:48 45.82268 13.48400 46 ft 4 kts 80°
2026-04-21 19:49 45.82258 13.48417 46 ft 3 kts 157°
2026-04-21 19:49 45.82225 13.48428 46 ft 5 kts 170°
2026-04-21 19:49 45.82200 13.48434 46 ft 0 kts 170°
2026-04-21 19:49 45.82196 13.48435 46 ft 1 kts 170°
2026-04-21 19:50 45.82192 13.48436 46 ft 0 kts 169°